Location: Namasale
(1.5000°N, 32.6167°E)
Time: 18:15:44
(UTC+00:00)

Vanguard 1 Rocket - Pass Details

Date: 23 April 2021
Orbit: 652 x 4224 km, 34.3° (Epoch: 09 May)

Event Time Altitude Azimuth Distance (km) Brightness Sun altitude
Rises 18:51:42 0° 294° (WNW) 3,886 11.4 -44.0°
Reaches altitude 10° 18:53:53 10° 289° (WNW) 3,195 10.8 -44.6°
Enters shadow 18:59:27 48° 256° (WSW) 2,065 9.2 -45.9°
Maximum altitude 19:01:55 58° 211° (SSW) 2,101 - -46.4°
Drops below altitude 10° 19:17:56 10° 136° (SE) 6,036 - -50.2°
Sets 19:23:59 0° 132° (SE) 7,574 - -51.6°
